星链-1587 (STARLINK-1587 )

导读 | 星芒AI

STARLINK-1587 是 SpaceX Starlink 项目中的一颗低轨通信卫星,属于第6批(Group 6)Starlink 卫星。该卫星于2020年11月25日由猎鹰9号火箭发射升空,运行在约550公里高的近地轨道,用于提供全球宽带互联网服务。它采用先进的相控阵天线和激光通信技术,支持高速、低延迟的网络连接。STARLINK-1587 是 SpaceX 构建全球卫星互联网网络的重要组成部分,有助于提升偏远地区的网络覆盖与服务质量。

基本信息
目录编号:
46157
目录名称:
STARLINK-1587
国际标识:
2020-057AS
轨道中心:
EARTH
卫星名称:
星链-1587
卫星全名:
星链-1587 (STARLINK-1587 )
卫星状态:
在轨 (已飞行1946 天)
发射日期:
2020-08-18 UTC
国别 :
美国 (US)
星等 :
--
轨道信息
数据来源 国际轨道数据
星历时间: 2025-12-15T16:00:02+0800
18小时前
查看轨道信息
半长轴: 6786.264km
偏心率: 0.0014897
轨道倾角: 53.048°
近地点辐角 61.959°
升交点赤经 273.805°
平近点角 112.297°
近地点: 398.019km
远地点: 418.239km
周期: 92.727分钟
每日圈数: 15.529471
详细信息
固有亮度:
5
最大亮度:
2.5
卫星平台:
Starlink V1.0
覆盖范围:
全球
运营商:
太空探索技术公司
运营商所在国:
美国
制造商(研发单位):
太空探索技术公司
制造商所在国:
美国
使用方式:
暂无
卫星简介
星链(Starlink)计划是由太空探索技术公司(SpaceX)提出的一个巨型低轨卫星互联网星座项目,计划在2019年至2024年间在太空搭建由约1.2万颗卫星组成的“星链”网络,其中1584颗将部署在地球上空550千米处的近地轨道,并从2020年开始工作。该卫星仍在工作。
2D轨道图
3D轨道图
轨道高度分析图
轨道倾角分析图
轨道综合分析图
查看轨道综合分析图